Lancaster, CA

11:18 AM PDT on May 23, 2017 (GMT -0700)
Gen Fox

Weather History for KWJF - October, 2011

Change the Weather History Date:

Monday, October 24, 2011

  Actual Average Record
Temperature  
Mean Temperature 67 °F 60 °F  
Max Temperature 84 °F 76 °F 96 °F (1959)
Min Temperature 49 °F 43 °F 26 °F (1975)
Degree Days  
Heating Degree Days 0    
Month to date heating degree days 51  
Since 1 July heating degree days 51  
Cooling Degree Days 2    
Month to date cooling degree days 69  
Year to date cooling degree days 1751  
Growing Degree Days 16 (Base 50)    
Moisture  
Dew Point 36 °F    
Average Humidity 33    
Maximum Humidity 50    
Minimum Humidity 16    
Precipitation  
Precipitation 0.00 in 0.02 in 0.12 in (1992)
Month to date precipitation 0.19 0.30  
Year to date precipitation 4.07 5.55  
Since 1 July precipitation 0.42  
Snow  
Snow 0.00 in - 0.00 in ()
Month to date snowfall 0.0  
Since 1 July snowfall 0.0  
Since 1 September snowfall 0.0  
Snow Depth 0.00 in    
Sea Level Pressure  
Sea Level Pressure 29.98 in    
Wind  
Wind Speed 12 mph (WSW)    
Max Wind Speed 23 mph    
Max Gust Speed 26 mph    
Visibility 10 miles    
Events      
T = Trace of Precipitation, MM = Missing Value Source: NWS Daily Summary

Daily Weather History Graph

Daily Weather History Graph

Search for Another Location

Airport or City:

Trip Planner

Search our weather history database for the weather conditions in past years. The results will help you decide how hot, cold, wet, or windy it might be!

Date:

Astronomy

Oct. 24, 2011 Rise Set
Actual Time 7:06 AM PDT 6:07 PM PDT
Civil Twilight 6:40 AM PDT 6:33 PM PDT
Nautical Twilight 6:10 AM PDT 7:02 PM PDT
Astronomical Twilight 5:41 AM PDT 7:32 PM PDT
Moon 4:35 AM PDT (10/24) 4:32 PM PDT (10/24)
Length of Visible Light 11h 52m
Length of Day
11h 01m
Waning Crescent, 6% of the Moon is Illuminated
Oct 24
Waning Crescent
Oct 26
New
Nov 2
First Quarter
Nov 10
Full
Nov 18
Last Quarter

Hourly Weather History & Observations

Time (PDT) Temp. Dew Point Humidity Pressure Visibility Wind Dir Wind Speed Gust Speed Precip Events Conditions
12:56 AM 66.9 °F 34.0 °F 30% 29.97 in 10.0 mi WSW 6.9 mph - N/A   Clear
1:56 AM 59.0 °F 33.1 °F 38% 29.98 in 10.0 mi WNW 6.9 mph - N/A   Clear
2:56 AM 61.0 °F 32.0 °F 34% 29.96 in 10.0 mi WSW 5.8 mph - N/A   Clear
3:56 AM 55.9 °F 30.9 °F 39% 29.96 in 10.0 mi Calm Calm - N/A   Clear
4:56 AM 51.1 °F 30.9 °F 46% 29.97 in 10.0 mi NE 4.6 mph - N/A   Clear
5:56 AM 52.0 °F 33.1 °F 49% 29.98 in 10.0 mi Calm Calm - N/A   Clear
6:56 AM 55.0 °F 35.1 °F 47% 29.99 in 10.0 mi SSW 3.5 mph - N/A   Clear
7:56 AM 52.0 °F 30.9 °F 45% 30.01 in 10.0 mi Calm Calm - N/A   Clear
8:56 AM 66.0 °F 34.0 °F 30% 30.01 in 10.0 mi West 3.5 mph - N/A   Clear
9:56 AM 79.0 °F 34.0 °F 20% 30.00 in 10.0 mi WSW 15.0 mph - N/A   Clear
10:56 AM 80.1 °F 34.0 °F 19% 30.01 in 10.0 mi SW 12.7 mph - N/A   Clear
11:56 AM 82.0 °F 33.1 °F 17% 29.98 in 10.0 mi SW 16.1 mph 23.0 mph N/A   Clear
12:56 PM 81.0 °F 33.1 °F 18% 29.96 in 10.0 mi WSW 13.8 mph 25.3 mph N/A   Clear
1:56 PM 82.0 °F 32.0 °F 16% 29.96 in 10.0 mi WSW 19.6 mph 24.2 mph N/A   Scattered Clouds
2:56 PM 81.0 °F 35.1 °F 19% 29.95 in 10.0 mi WSW 15.0 mph - N/A   Clear
3:56 PM 79.0 °F 35.1 °F 20% 29.95 in 10.0 mi WSW 17.3 mph - N/A   Scattered Clouds
4:56 PM 79.0 °F 39.9 °F 25% 29.95 in 10.0 mi WSW 17.3 mph - N/A   Scattered Clouds
5:56 PM 73.9 °F 45.0 °F 35% 29.96 in 10.0 mi West 18.4 mph - N/A   Clear
6:56 PM 69.1 °F 46.9 °F 45% 29.97 in 10.0 mi WSW 18.4 mph - N/A   Clear
7:56 PM 66.9 °F 44.1 °F 44% 29.99 in 10.0 mi West 16.1 mph - N/A   Clear
8:56 PM 66.0 °F 39.9 °F 38% 29.99 in 10.0 mi West 17.3 mph - N/A   Clear
9:56 PM 64.9 °F 39.9 °F 40% 29.99 in 10.0 mi West 12.7 mph - N/A   Clear
10:56 PM 66.0 °F 39.0 °F 37% 30.00 in 10.0 mi West 19.6 mph - N/A   Clear
11:56 PM 64.0 °F 37.9 °F 38% 29.99 in 10.0 mi WSW 16.1 mph - N/A   Clear